Location: Asheville, NC
(35.6000°N, 82.5500°W)
Time: 18:24:40
(UTC-04:00)

Hubble Space Telescope - Pass Details

Date: 12 December 2017
Orbit: 537 x 541 km, 28.5° (Epoch: 19 July)

Event Time Altitude Azimuth Distance (km) Brightness Sun altitude
Rises 19:06:12 0° 255° (WSW) 2,676 5.9 -21.4°
Reaches altitude 10° 19:08:40 10° 245° (WSW) 1,785 4.5 -21.9°
Maximum altitude 19:12:17 29° 184° (S) 988 2.2 -22.6°
Enters shadow 19:12:56 28° 165° (SSE) 1,024 2.1 -22.7°
